FW9766 Weather Reports


Display with metric or nautical units.
time (UTC)temp
F
wind
direction
speed
MPH
gust
MPH
rain 1hr
in
rain 24hr
in
rain mn
in
humidity
%
barometer
mb
20260509184548 84 151 4.0 8.0 0.00 0.00 0.00 63 1012.2
20260509183131 84 140 4.0 9.0 0.00 0.00 0.00 65 1012.3
20260509181601 83 171 5.0 9.0 0.00 0.00 0.00 69 1012.7
20260509180044 83 158 2.0 9.0 0.00 0.00 0.00 70 1012.9
20260509174541 82 168 3.0 8.0 0.00 0.00 0.00 71 1012.9
20260509173047 81 131 3.0 9.0 0.00 0.00 0.00 73 1013.1
20260509171548 80 146 6.0 10.0 0.00 0.00 0.00 74 1013.3
20260509170046 80 139 3.0 10.0 0.00 0.00 0.00 76 1013.1
20260509164544 79 112 3.0 10.0 0.00 0.00 0.00 79 1013.4
20260509163041 78 127 2.0 7.0 0.00 0.00 0.00 81 1013.5
20260509161540 76 85 3.0 9.0 0.00 0.00 0.00 85 1013.5
20260509160049 76 101 3.0 9.0 0.00 0.00 0.00 84 1013.6
20260509154552 75 117 3.0 10.0 0.00 0.00 0.00 87 1013.6
20260509153045 73 56 3.0 11.0 0.00 0.00 0.00 92 1013.3
20260509151546 73 83 1.0 6.0 0.00 0.00 0.00 90 1013.3
20260509150113 72 114 3.0 6.0 0.00 0.00 0.00 92 1013.2
20260509144548 71 130 3.0 7.0 0.00 0.00 0.00 95 1013.0
20260509143046 69 151 2.0 7.0 0.00 0.00 0.00 96 1013.0
20260509141545 69 0 0.0 0.0 0.00 0.00 0.00 97 1013.5
20260509140056 68 0 1.0 3.0 0.00 0.00 0.00 97 1013.6
20260509134544 68 0 0.0 2.0 0.00 0.00 0.00 98 1013.6
20260509133042 68 0 0.0 3.0 0.00 0.00 0.00 97 1013.6
20260509131547 68 282 1.0 6.0 0.00 0.00 0.00 97 1013.5
20260509130048 68 294 1.0 6.0 0.00 0.00 0.00 98 1013.2
20260509124546 68 290 1.0 4.0 0.00 0.00 0.00 98 1013.3
20260509123045 68 0 0.0 0.0 0.00 0.00 0.00 98 1013.3
20260509121550 68 281 0.0 3.0 0.00 0.00 0.00 97 1013.3
20260509120053 68 0 0.0 6.0 0.00 0.00 0.00 98 1013.4
20260509114547 68 304 2.0 10.0 0.00 0.00 0.00 98 1013.3
20260509113046 68 229 3.0 10.0 0.00 0.00 0.00 98 1013.2
20260509111549 68 295 3.0 9.0 0.00 0.00 0.00 98 1013.5
20260509110046 68 0 0.0 0.0 0.00 0.00 0.00 98 1012.8
20260509104544 68 0 0.0 3.0 0.00 0.00 0.00 98 1012.3
20260509103042 68 325 1.0 3.0 0.00 0.00 0.00 98 1012.2
20260509101554 67 0 0.0 3.0 0.00 0.00 0.00 98 1012.2
20260509100048 67 0 0.0 0.0 0.00 0.00 0.00 98 1012.0
20260509094546 67 0 0.0 0.0 0.00 0.00 0.00 98 1011.8
20260509093053 67 0 0.0 0.0 0.00 0.00 0.00 97 1011.6
20260509091549 67 0 0.0 0.0 0.00 0.00 0.00 97 1011.4
20260509090050 67 0 0.0 0.0 0.00 0.00 0.00 97 1011.2
20260509084554 67 0 0.0 0.0 0.00 0.00 0.00 97 1011.6
20260509083045 68 0 0.0 4.0 0.00 0.00 0.00 97 1011.9
20260509081545 68 0 0.0 0.0 0.00 0.00 0.00 97 1012.2
20260509080052 68 0 0.0 0.0 0.00 0.00 0.00 97 1012.2
20260509074542 68 0 0.0 0.0 0.00 0.00 0.00 97 1012.1
20260509073048 67 0 0.0 0.0 0.00 0.00 0.00 97 1012.1
20260509071547 67 0 0.0 0.0 0.00 0.00 0.00 97 1011.9
20260509070046 67 0 0.0 0.0 0.00 0.00 0.00 97 1012.2
20260509064545 67 0 0.0 0.0 0.00 0.00 0.00 97 1011.9
20260509063048 67 0 0.0 0.0 0.00 0.00 0.00 97 1012.1
20260509061549 66 0 0.0 0.0 0.00 0.00 0.00 97 1012.2
20260509060050 65 0 0.0 0.0 0.00 0.00 0.00 97 1012.2
20260509054550 65 0 0.0 0.0 0.00 0.00 0.00 96 1012.4
20260509053046 65 0 0.0 0.0 0.00 0.00 0.00 96 1012.6
20260509051610 65 0 0.0 3.0 0.00 0.00 0.00 96 1012.4
20260509050049 65 0 0.0 0.0 0.00 0.00 0.00 96 1012.9
20260509044548 65 0 0.0 3.0 0.00 0.00 0.00 96 1012.6
20260509043044 65 0 0.0 0.0 0.00 0.00 0.00 95 1012.3
20260509041549 65 0 0.0 0.0 0.00 0.00 0.00 95 1012.2
20260509040053 65 78 1.0 4.0 0.00 0.00 0.00 95 1011.8
20260509034549 66 0 0.0 3.0 0.00 0.00 0.00 94 1011.3
20260509033046 66 0 0.0 2.0 0.00 0.00 0.00 94 1011.1
20260509031549 66 0 0.0 0.0 0.00 0.00 0.00 93 1011.2
20260509030044 67 0 0.0 0.0 0.00 0.00 0.00 94 1011.0
20260509024548 67 0 0.0 0.0 0.00 0.00 0.00 92 1011.0
20260509023047 68 0 0.0 0.0 0.00 0.00 0.00 92 1011.0
20260509021548 68 0 0.0 0.0 0.00 0.00 0.00 91 1010.9
20260509020046 69 0 0.0 0.0 0.00 0.00 0.00 90 1010.8
20260509014547 70 0 0.0 0.0 0.00 0.00 0.00 89 1010.6
20260509013105 71 0 0.0 0.0 0.00 0.00 0.00 87 1010.5
20260509011544 72 0 1.0 4.0 0.00 0.00 0.00 85 1010.2
20260509010048 73 108 1.0 5.0 0.00 0.00 0.00 84 1009.9
20260509004546 74 67 3.0 8.0 0.00 0.00 0.00 83 1009.9
20260509003049 75 53 2.0 6.0 0.00 0.00 0.00 81 1010.2
20260509001547 75 59 3.0 9.0 0.00 0.00 0.00 81 1010.1
20260509000048 75 92 3.0 10.0 0.00 0.00 0.00 82 1010.1
20260508234548 75 101 2.0 9.0 0.00 0.00 0.00 82 1010.3
20260508233101 75 76 4.0 10.0 0.00 0.00 0.00 83 1010.3
20260508231550 74 61 4.0 11.0 0.00 0.00 0.00 83 1010.2
20260508230055 75 54 3.0 11.0 0.00 0.00 0.00 84 1010.4
20260508224551 75 136 5.0 10.0 0.00 0.00 0.00 83 1010.4
20260508223044 75 40 4.0 9.0 0.00 0.00 0.00 83 1010.4
20260508221542 74 69 3.0 10.0 0.00 0.00 0.00 84 1010.4
20260508220048 75 66 3.0 8.0 0.00 0.00 0.00 82 1010.3
20260508214548 75 106 3.0 9.0 0.00 0.00 0.00 83 1010.5
20260508213045 75 0 2.0 9.0 0.00 0.00 0.00 83 1010.6
20260508211544 75 65 1.0 7.0 0.00 0.00 0.00 82 1010.6
20260508210047 75 77 4.0 9.0 0.00 0.00 0.00 81 1010.8
20260508204551 76 53 2.0 9.0 0.00 0.00 0.00 80 1010.9
20260508203053 77 57 4.0 9.0 0.00 0.00 0.00 77 1011.1
20260508201548 77 96 3.0 9.0 0.00 0.00 0.00 80 1011.0
20260508194543 76 24 0.0 8.0 0.00 0.00 0.00 81 1011.2
20260508193048 76 90 5.0 11.0 0.00 0.00 0.00 81 1011.5
20260508191554 76 123 3.0 8.0 0.00 0.00 0.00 81 1011.7
20260508190047 75 101 3.0 7.0 0.00 0.00 0.00 83 1011.7